map of CKG home
CKG - Airport
Location
City:  Chongqing, Chongqing, China
Name:Jiangbei Airport
ICAO:ZUCK
IATA:CKG

Details
Type:Airport (Aerodrome, Airfield)
Use:Public/Civil, International (customs port of entry)
Latitude:2943'N (29.720)
Longitude:10638'E (106.640)
Elevation:1365 ft (416 m)
Variation:2.68W (WMM2015v2 magnetic declination)
-0.07 annual change
Runways:2
Longest:11811 × 148 ft (3600 × 45 m), paved

Time
Time Zone:UTC+8
Local Time:

Weather
METAR:ZUCK 041400Z 01001MPS CAVOK 09/06 Q1020 NOSIG

Related Locations
Nearby:
Farthest:SCOY: 12322 mi / 19831 km
Ovalle [Huayanay Airport], CO, CL

Find:

   beyond  
but within

Other Information
Maps:
NOTAMs:
Links:
Sources:

  
  • flag of China
  

Sectional Chart

Flight Planning
at skyvector.com

Satellite Image

Google Maps Satellite view

 

Copyright © 2004-2019 Karl L. Swartz. All rights reserved.
The Great Circle Mapper name and logo are trademarks of the Great Circle Mapper.
All other trademarks mentioned herein belong to their respective owners.
Please see credits for attibutions and further copyright information.

  Follow gcmap on Facebook Follow gcmap on Twitter GCmap on LinkedIn

hCard Microformat

Geo Microformat